レモン-パンスターズ彗星

445P/Lemmon-PanSTARRS (2006)

English version
Home page
Updated on August 6, 2022

---------------------------------------------------------------------

・ プロフィール

符号 445P/2006 S14

・ 軌道要素

                    Epoch = 2006 Apr. 15.0 TT
     T = 2006 Apr.  5.05621 TT        Peri. = 213.83319
     e = 0.4137037                    Node  = 126.45820 2000.0
     q = 2.3802828 AU                 Incl. =   1.08569
       a =  4.0598636 AU   n = 0.12048609   P =   8.18 years

・ 光度変化

        m1 = 14.0 + 5 logΔ + 10.0 log r

---------------------------------------------------------------------

軌道要素は、CBET 5149に掲載されたものです。
光度グラフはComet for Windowsで作成したものです。

---------------------------------------------------------------------

Copyright(C) Seiichi Yoshida (comet@aerith.net). All rights reserved.